Weather History for Morgantown, WV

Change the Weather History Date:

Monday, January 1, 2007

  Actual Average Record
Temperature  
Mean Temperature 45 °F 32 °F  
Max Temperature 55 °F 39 °F 73 °F (1952)
Min Temperature 35 °F 24 °F -4 °F (1968)
Degree Days  
Heating Degree Days 20 33  
Month to date heating degree days 33  
Since 1 July heating degree days 2017  
Cooling Degree Days 0 0  
Month to date cooling degree days 0  
Year to date cooling degree days 0  
Moisture  
Dew Point 43 °F    
Average Humidity 79    
Maximum Humidity 94    
Minimum Humidity 54    
Precipitation  
Precipitation 0.06 in 0.09 in 0.89 in (2003)
Month to date precipitation 0.09  
Year to date precipitation 0.09  
Sea Level Pressure  
Sea Level Pressure 29.92 in    
Wind  
Wind Speed 7 mph (WSW)    
Max Wind Speed 14 mph    
Max Gust Speed 29 mph    
Visibility 10 miles    
Events Rain , Snow    
T = Trace of Precipitation, MM = Missing Value Source: NWS Daily Summary

Daily Weather History Graph

Daily Weather History Graph

Search for Another Location

Airport:

Trip Planner

Search our weather history database for the weather conditions in past years. The results will help you decide how hot, cold, wet, or windy it might be!

Date:

Astronomy

Jan. 01, 2007 Rise Set
Actual Time 7:40 AM EST 5:06 PM EST
Civil Twilight 7:10 AM EST 5:36 PM EST
Nautical Twilight 6:36 AM EST 6:10 PM EST
Astronomical Twilight 6:03 AM EST 6:42 PM EST
Moon 3:01 PM EST 6:05 AM EST
Length of Visible Light 10h 25m
Length of Day
9h 25m
Waxing Gibbous, 96% of the Moon is Illuminated
Jan 1
Waxing Gibbous
Jan 3
Full
Jan 11
Last Quarter
Jan 18
New
Jan 25
First Quarter

Hourly Weather History & Observations

Time (EST) Temp. Windchill Dew Point Humidity Pressure Visibility Wind Dir Wind Speed Gust Speed Precip Events Conditions
12:49 AM 55.4 °F - 51.8 °F 88% 29.90 in 3.0 mi West 8.1 mph - 0.04 in Rain Light Rain
12:53 AM 55.0 °F - 52.0 °F 89% 29.90 in 3.0 mi WSW 10.4 mph - 0.05 in Rain Light Rain
1:13 AM 55.4 °F - 51.8 °F 88% 29.89 in 9.0 mi Variable 4.6 mph - 0.00 in   Overcast
1:18 AM 55.4 °F - 51.8 °F 88% 29.89 in 10.0 mi South 3.5 mph - 0.00 in   Overcast
1:27 AM 55.4 °F - 51.8 °F 88% 29.88 in 10.0 mi SSW 4.6 mph - 0.00 in   Overcast
1:35 AM 55.4 °F - 51.8 °F 88% 29.88 in 10.0 mi SSW 4.6 mph - 0.00 in   Overcast
1:53 AM 54.0 °F - 51.1 °F 90% 29.88 in 10.0 mi Variable 3.5 mph - 0.00 in   Mostly Cloudy
2:17 AM 53.6 °F - 51.8 °F 94% 29.88 in 10.0 mi Calm Calm - N/A   Mostly Cloudy
2:33 AM 53.6 °F - 51.8 °F 94% 29.88 in 10.0 mi SSW 5.8 mph - N/A   Scattered Clouds
2:53 AM 54.0 °F - 51.1 °F 90% 29.88 in 10.0 mi Variable 3.5 mph - N/A   Clear
3:18 AM 53.6 °F - 51.8 °F 94% 29.89 in 10.0 mi Variable 3.5 mph - N/A   Mostly Cloudy
3:51 AM 55.4 °F - 51.8 °F 88% 29.88 in 10.0 mi SW 4.6 mph - N/A   Mostly Cloudy
3:53 AM 54.0 °F - 51.1 °F 90% 29.88 in 10.0 mi SW 4.6 mph - N/A   Mostly Cloudy
4:05 AM 53.6 °F - 51.8 °F 94% 29.88 in 10.0 mi SW 5.8 mph - N/A   Mostly Cloudy
4:40 AM 53.6 °F - 50.0 °F 88% 29.88 in 10.0 mi Calm Calm - N/A   Scattered Clouds
4:53 AM 53.1 °F - 50.0 °F 89% 29.88 in 10.0 mi SW 3.5 mph - N/A   Clear
5:24 AM 53.6 °F - 50.0 °F 88% 29.88 in 10.0 mi SW 4.6 mph - N/A   Mostly Cloudy
5:53 AM 52.0 °F - 48.9 °F 89% 29.88 in 10.0 mi SW 6.9 mph - N/A   Mostly Cloudy
6:01 AM 51.8 °F - 48.2 °F 88% 29.89 in 10.0 mi SW 5.8 mph - N/A   Partly Cloudy
6:53 AM 51.1 °F - 46.0 °F 83% 29.89 in 10.0 mi SW 4.6 mph - 0.01 in   Clear
7:53 AM 50.0 °F - 43.0 °F 77% 29.89 in 10.0 mi SW 4.6 mph - N/A   Scattered Clouds
8:53 AM 50.0 °F - 42.1 °F 74% 29.89 in 10.0 mi SW 6.9 mph - N/A   Scattered Clouds
9:53 AM 53.1 °F - 44.1 °F 71% 29.88 in 10.0 mi WSW 6.9 mph - N/A   Clear
10:53 AM 53.1 °F - 42.1 °F 66% 29.87 in 10.0 mi WSW 13.8 mph 17.3 mph N/A   Mostly Cloudy
11:53 AM 53.1 °F - 39.9 °F 61% 29.84 in 10.0 mi SW 10.4 mph - N/A   Mostly Cloudy
12:53 PM 52.0 °F - 37.9 °F 59% 29.83 in 10.0 mi West 10.4 mph - N/A   Overcast
1:53 PM 52.0 °F - 36.0 °F 54% 29.83 in 10.0 mi West 12.7 mph - N/A   Overcast
2:53 PM 48.9 °F - 35.1 °F 59% 29.86 in 10.0 mi West 10.4 mph 20.7 mph N/A   Overcast
3:53 PM 48.0 °F - 33.1 °F 56% 29.88 in 10.0 mi WSW 13.8 mph 19.6 mph N/A   Overcast
4:53 PM 46.9 °F - 33.1 °F 59% 29.89 in 10.0 mi WSW 12.7 mph - N/A   Overcast
5:25 PM 44.6 °F 38.8 °F 35.6 °F 71% 29.91 in 10.0 mi West 11.5 mph 17.3 mph 0.00 in   Overcast
5:53 PM 43.0 °F 36.4 °F 35.1 °F 74% 29.95 in 10.0 mi WNW 12.7 mph 18.4 mph 0.00 in   Overcast
6:53 PM 39.9 °F 32.1 °F 30.9 °F 70% 30.01 in 10.0 mi West 13.8 mph 28.8 mph N/A   Overcast
7:53 PM 37.9 °F 31.5 °F 28.9 °F 70% 30.06 in 10.0 mi WNW 9.2 mph - N/A   Overcast
8:53 PM 37.0 °F 30.4 °F 28.0 °F 70% 30.08 in 10.0 mi West 9.2 mph - N/A   Overcast
9:53 PM 37.0 °F 31.0 °F 28.0 °F 70% 30.11 in 10.0 mi West 8.1 mph - N/A   Overcast
10:53 PM 36.0 °F 29.0 °F 30.0 °F 79% 30.13 in 9.0 mi WSW 9.2 mph - 0.00 in Snow Light Snow
11:10 PM 35.6 °F 29.2 °F 30.2 °F 81% 30.12 in 10.0 mi WSW 8.1 mph 16.1 mph 0.00 in   Overcast
11:29 PM 35.6 °F 28.6 °F 30.2 °F 81% 30.13 in 10.0 mi WSW 9.2 mph - 0.00 in   Overcast